JR2TER-13 Weather Reports


time (UTC)temp
F
wind
direction
speed
knots
gust
knots
rain 1hr
in
rain 24hr
in
rain mn
in
humidity
%
barometer
mb
20260505094505 65 128 2.6 6.1 0.00 0.00 0.00 50 1018.1
20260505093504 66 122 6.1 8.7 0.00 0.00 0.00 50 1018.1
20260505093005 66 116 5.2 5.2 0.00 0.00 0.00 50 1018.1
20260505092503 66 119 2.6 6.1 0.00 0.00 0.00 50 1018.1
20260505092004 66 123 3.5 7.8 0.00 0.00 0.00 50 1018.1
20260505091504 66 132 5.2 8.7 0.00 0.00 0.00 50 1018.1
20260505091004 67 132 5.2 8.7 0.00 0.00 0.00 50 1018.1
20260505090005 67 133 4.3 11.3 0.00 0.00 0.00 50 1018.1
20260505085504 67 130 9.6 11.3 0.00 0.00 0.00 50 1018.1
20260505085004 67 131 8.7 11.3 0.00 0.00 0.00 50 1018.1
20260505084503 67 126 6.1 9.6 0.00 0.00 0.00 50 1017.1
20260505084004 67 134 6.1 11.3 0.00 0.00 0.00 50 1017.1
20260505083504 67 149 7.0 14.8 0.00 0.00 0.00 50 1017.1
20260505082503 68 142 9.6 16.5 0.00 0.00 0.00 50 1018.1
20260505081504 68 132 10.4 12.2 0.00 0.00 0.00 50 1018.1
20260505081004 68 141 7.0 14.8 0.00 0.00 0.00 50 1018.1
20260505080506 68 145 5.2 17.4 0.00 0.00 0.00 50 1018.1
20260505080004 68 143 12.2 17.4 0.00 0.00 0.00 50 1017.1
20260505075004 68 155 7.0 13.0 0.00 0.00 0.00 50 1017.1
20260505074003 68 145 9.6 13.9 0.00 0.00 0.00 50 1018.1
20260505073003 68 140 10.4 13.9 0.00 0.00 0.00 50 1017.1
20260505072504 69 132 7.8 13.9 0.00 0.00 0.00 50 1017.1
20260505072004 69 147 7.8 14.8 0.00 0.00 0.00 50 1017.1
20260505071504 68 155 9.6 16.5 0.00 0.00 0.00 50 1018.1
20260505071004 69 150 13.0 20.0 0.00 0.00 0.00 50 1018.1
20260505070503 69 157 9.6 20.0 0.00 0.00 0.00 50 1018.1
20260505070004 69 161 10.4 15.6 0.00 0.00 0.00 50 1018.1
20260505065504 69 152 11.3 15.6 0.00 0.00 0.00 50 1018.1
20260505065005 69 140 9.6 13.0 0.00 0.00 0.00 50 1018.1
20260505064504 69 137 8.7 13.9 0.00 0.00 0.00 50 1018.1
20260505064003 69 141 8.7 14.8 0.00 0.00 0.00 50 1018.1
20260505063504 69 144 7.8 14.8 0.00 0.00 0.00 50 1018.1
20260505063004 69 142 8.7 14.8 0.00 0.00 0.00 50 1018.1
20260505062504 69 147 11.3 15.6 0.00 0.00 0.00 50 1018.1
20260505062004 69 153 7.0 15.6 0.00 0.00 0.00 50 1018.1
20260505061004 69 144 9.6 16.5 0.00 0.00 0.00 50 1018.1
20260505060503 70 161 12.2 16.5 0.00 0.00 0.00 50 1018.1
20260505060004 70 159 9.6 16.5 0.00 0.00 0.00 50 1018.1
20260505054504 70 148 6.1 16.5 0.00 0.00 0.00 50 1018.1
20260505054006 70 143 12.2 16.5 0.00 0.00 0.00 50 1018.1
20260505053504 70 153 11.3 16.5 0.00 0.00 0.00 50 1018.1
20260505053004 70 161 5.2 14.8 0.00 0.00 0.00 50 1018.1
20260505052004 70 154 13.9 18.2 0.00 0.00 0.00 50 1018.1
20260505051504 70 154 9.6 14.8 0.00 0.00 0.00 50 1018.1
20260505051003 70 157 11.3 14.8 0.00 0.00 0.00 50 1018.1
20260505050504 70 151 13.0 14.8 0.00 0.00 0.00 50 1018.1
20260505041504 71 158 8.7 16.5 0.00 0.00 0.00 50 1017.1
20260505041004 70 150 7.8 16.5 0.00 0.00 0.00 50 1017.1
20260505040504 71 154 8.7 11.3 0.00 0.00 0.00 50 1017.1
20260505035504 71 158 11.3 11.3 0.00 0.00 0.00 50 1018.1
20260505035004 71 152 7.0 11.3 0.00 0.00 0.00 50 1018.1
20260505034505 70 167 7.0 9.6 0.00 0.00 0.00 50 1018.1
20260505034005 70 188 3.5 11.3 0.00 0.00 0.00 50 1018.1
20260505033505 70 192 8.7 11.3 0.00 0.00 0.00 50 1018.1
20260505033004 71 191 3.5 9.6 0.00 0.00 0.00 50 1018.1
20260505032504 71 187 5.2 9.6 0.00 0.00 0.00 50 1018.1
20260505032003 71 188 3.5 7.8 0.00 0.00 0.00 50 1018.1
20260505031504 71 190 4.3 11.3 0.00 0.00 0.00 50 1018.1
20260505031005 71 191 4.3 11.3 0.00 0.00 0.00 50 1018.1
20260505030503 71 183 3.5 7.8 0.00 0.00 0.00 50 1018.1
20260505030004 70 166 7.8 7.0 0.00 0.00 0.00 50 1018.1
20260505025504 70 175 5.2 7.0 0.00 0.00 0.00 50 1018.1
20260505025004 70 194 5.2 8.7 0.00 0.00 0.00 50 1018.1
20260505023504 69 197 4.3 7.0 0.00 0.00 0.00 50 1018.1
20260505023003 69 184 6.1 8.7 0.00 0.00 0.00 50 1019.1
20260505022504 68 188 5.2 8.7 0.00 0.00 0.00 50 1019.1
20260505022003 68 190 5.2 11.3 0.00 0.00 0.00 50 1019.1
20260505021504 67 198 8.7 11.3 0.00 0.00 0.00 50 1019.1
20260505021004 68 198 8.7 13.0 0.00 0.00 0.00 50 1019.1
20260505015504 69 201 8.7 10.4 0.00 0.00 0.00 50 1019.1
20260505015004 69 197 8.7 11.3 0.00 0.00 0.00 50 1019.1
20260505014503 69 194 5.2 11.3 0.00 0.00 0.00 50 1019.1
20260505014004 69 191 7.8 9.6 0.00 0.00 0.00 50 1019.1
20260505013504 69 189 7.0 11.3 0.00 0.00 0.00 50 1019.1
20260505013004 71 191 8.7 11.3 0.00 0.00 0.00 50 1019.1
20260505012503 71 202 7.8 9.6 0.00 0.00 0.00 50 1019.1
20260505012004 72 195 2.6 7.8 0.00 0.00 0.00 50 1019.1
20260505011504 71 185 6.1 7.8 0.00 0.00 0.00 50 1019.1
20260505011003 72 185 2.6 5.2 0.00 0.00 0.00 50 1019.1
20260505010504 72 174 2.6 5.2 0.00 0.00 0.00 50 1019.1
20260505010004 73 150 5.2 5.2 0.00 0.00 0.00 50 1019.1
20260505005503 74 128 2.6 6.1 0.00 0.00 0.00 50 1019.1
20260505005005 75 91 4.3 6.1 0.00 0.00 0.00 50 1019.1
20260505004003 78 14 3.5 4.3 0.00 0.00 0.00 50 1018.1
20260505003504 77 341 0.0 3.5 0.00 0.00 0.00 50 1018.1
20260505003004 77 342 1.7 3.5 0.00 0.00 0.00 50 1018.1
20260505002505 76 349 0.9 3.5 0.00 0.00 0.00 50 1018.1
20260505002004 76 348 2.6 3.5 0.00 0.00 0.00 50 1018.1
20260505001504 76 310 2.6 4.3 0.00 0.00 0.00 50 1019.1
20260505001004 75 329 2.6 4.3 0.00 0.00 0.00 50 1019.1
20260505000504 75 337 5.2 5.2 0.00 0.00 0.00 50 1019.1
20260505000003 75 326 5.2 5.2 0.00 0.00 0.00 50 1019.1
20260504235504 75 312 3.5 5.2 0.00 0.00 0.00 50 1019.1
20260504235004 74 307 2.6 5.2 0.00 0.00 0.00 50 1019.1
20260504234003 74 340 5.2 3.5 0.00 0.00 0.00 50 1019.1
20260504233504 73 348 3.5 7.0 0.00 0.00 0.00 50 1019.1
20260504232504 72 345 2.6 7.0 0.00 0.00 0.00 50 1019.1
20260504232004 71 323 1.7 7.0 0.00 0.00 0.00 50 1019.1
20260504231504 71 334 3.5 7.0 0.00 0.00 0.00 50 1019.1
20260504231003 70 353 4.3 7.0 0.00 0.00 0.00 50 1019.1
20260504230504 69 0 0.0 0.0 0.00 0.00 0.00 50 1019.1
20260504225504 68 292 0.0 5.2 0.00 0.00 0.00 50 1018.1
20260504225003 67 292 4.3 8.7 0.00 0.00 0.00 50 1018.1
20260504224505 67 298 4.3 8.7 0.00 0.00 0.00 50 1018.1
20260504224004 66 302 7.8 8.7 0.00 0.00 0.00 50 1018.1
20260504223504 65 135 0.9 0.9 0.00 0.00 0.00 50 1018.1
20260504223005 64 173 0.9 3.5 0.00 0.00 0.00 50 1018.1
20260504222504 63 286 0.9 8.7 0.00 0.00 0.00 50 1018.1
20260504222003 63 318 4.3 11.3 0.00 0.00 0.00 50 1018.1
20260504221504 62 328 4.3 11.3 0.00 0.00 0.00 50 1018.1
20260504221003 62 337 0.0 11.3 0.00 0.00 0.00 50 1018.1
20260504220504 61 338 7.8 11.3 0.00 0.00 0.00 50 1018.1
20260504220004 60 352 7.8 15.6 0.00 0.00 0.00 50 1018.1
20260504215503 60 359 11.3 17.4 0.00 0.00 0.00 50 1018.1
20260504215004 60 358 8.7 17.4 0.00 0.00 0.00 50 1018.1
20260504214505 60 357 8.7 18.2 0.00 0.00 0.00 50 1018.1
20260504214004 59 359 10.4 18.2 0.00 0.00 0.00 50 1018.1
20260504213004 58 11 7.0 12.2 0.00 0.00 0.00 50 1017.1
20260504212004 57 347 7.8 19.1 0.00 0.04 0.00 50 1017.1
20260504211504 56 333 7.8 19.1 0.00 0.04 0.00 50 1018.1
20260504211004 56 329 13.0 18.2 0.00 0.04 0.00 50 1018.1
20260504210504 56 325 11.3 19.1 0.00 0.04 0.00 50 1018.1
20260504210004 55 325 13.9 19.1 0.00 0.04 0.00 50 1018.1
20260504205503 55 329 12.2 19.1 0.00 0.04 0.00 50 1018.1
20260504205003 55 328 8.7 19.1 0.00 0.04 0.00 50 1018.1
20260504204503 54 327 11.3 15.6 0.00 0.08 0.00 50 1018.1
20260504204004 54 332 8.7 16.5 0.00 0.08 0.00 50 1018.1
20260504203003 54 332 11.3 20.0 0.00 0.08 0.00 50 1018.1
20260504202004 53 327 13.0 20.0 0.00 0.08 0.00 50 1018.1
20260504201504 52 322 13.0 21.7 0.00 0.08 0.00 50 1018.1
20260504200503 52 313 10.4 21.7 0.00 0.08 0.00 50 1018.1
20260504200004 52 313 7.8 11.3 0.00 0.08 0.00 50 1017.1
20260504195504 52 314 8.7 11.3 0.00 0.08 0.00 50 1017.1
20260504195004 53 329 3.5 5.2 0.00 0.08 0.00 50 1017.1
20260504194003 53 329 4.3 5.2 0.00 0.08 0.00 50 1018.1
20260504193504 53 330 1.7 3.5 0.00 0.08 0.00 50 1018.1
20260504193004 53 337 2.6 6.1 0.00 0.08 0.00 50 1018.1
20260504192504 53 331 2.6 7.0 0.00 0.08 0.00 50 1018.1
20260504192005 53 327 4.3 8.7 0.00 0.08 0.00 50 1018.1
20260504191503 53 326 4.3 8.7 0.00 0.08 0.00 50 1018.1
20260504191003 53 323 5.2 9.6 0.00 0.08 0.00 50 1018.1
20260504185504 54 329 11.3 13.9 0.00 0.08 0.00 50 1017.1
20260504185004 54 340 7.8 13.0 0.00 0.08 0.00 50 1017.1
20260504184504 54 336 9.6 13.0 0.00 0.08 0.00 50 1016.1
20260504184004 54 332 5.2 9.6 0.00 0.08 0.00 50 1016.1
20260504183504 54 324 7.8 13.0 0.00 0.08 0.00 50 1016.1
20260504182504 54 337 7.8 11.3 0.00 0.08 0.00 50 1016.1
20260504182003 54 337 7.8 11.3 0.00 0.08 0.00 50 1016.1
20260504181004 55 319 6.1 11.3 0.00 0.08 0.00 50 1016.1
20260504180505 55 321 6.1 13.0 0.00 0.08 0.00 50 1016.1
20260504180003 55 322 7.8 13.0 0.00 0.08 0.00 50 1015.1
20260504175503 55 319 5.2 13.0 0.00 0.08 0.00 50 1015.1
20260504175004 55 321 7.8 13.0 0.00 0.08 0.00 50 1015.1
20260504174504 55 319 5.2 15.6 0.00 0.08 0.00 50 1015.1
20260504174004 55 310 7.8 23.5 0.00 0.08 0.00 50 1015.1
20260504173504 55 319 7.8 23.5 0.00 0.08 0.00 50 1015.1
20260504173004 56 320 7.8 18.2 0.00 0.08 0.00 50 1015.1
20260504172505 56 313 7.8 18.2 0.00 0.08 0.00 50 1015.1
20260504172004 56 306 9.6 14.8 0.00 0.08 0.00 50 1015.1
20260504171504 56 304 8.7 14.8 0.00 0.08 0.00 50 1014.1
20260504171004 56 305 5.2 15.6 0.00 0.08 0.00 50 1014.1
20260504170504 56 308 9.6 20.0 0.00 0.12 0.00 50 1014.1
20260504151004 57 303 11.3 24.3 0.00 0.25 0.00 50 1013.1
20260504150504 57 304 8.7 11.3 0.00 0.28 0.00 50 1013.1
20260504141004 58 309 4.3 11.3 0.00 0.37 0.28 50 1012.1
20260504130504 59 311 8.7 13.9 0.00 0.74 0.28 50 1012.1
20260504110503 60 311 7.8 15.6 0.00 1.03 0.28 50 1010.1
20260504100504 61 312 7.8 18.2 0.00 1.03 0.28 50 1008.1